Soldotna, AK

6:23 AM AKDT on May 27, 2017 (GMT -0800)
Soldotna

Weather History for PASX - September, 2012

Change the Weather History Date:

Sunday, September 30, 2012

  Actual Average Record
Temperature  
Mean Temperature 32 °F -  
Max Temperature 44 °F 49 °F 60 °F (1952)
Min Temperature 21 °F 35 °F 19 °F (1953)
Degree Days  
Heating Degree Days 32    
Moisture  
Dew Point 24 °F    
Average Humidity 74    
Maximum Humidity 100    
Minimum Humidity 43    
Precipitation  
Precipitation 0.00 in - - ()
Sea Level Pressure  
Sea Level Pressure 29.99 in    
Wind  
Wind Speed 3 mph (ENE)    
Max Wind Speed 12 mph    
Max Gust Speed -    
Visibility 10 miles    
Events      
Averages and records for this station are not official NWS values.
T = Trace of Precipitation, MM = Missing Value Source: NWS Daily Summary

Daily Weather History Graph

Daily Weather History Graph

Search for Another Location

Airport or City:

Trip Planner

Search our weather history database for the weather conditions in past years. The results will help you decide how hot, cold, wet, or windy it might be!

Date:

Astronomy

Sep. 30, 2012 Rise Set
Actual Time 8:09 AM AKDT 7:37 PM AKDT
Civil Twilight 7:27 AM AKDT 8:18 PM AKDT
Nautical Twilight 6:37 AM AKDT 9:08 PM AKDT
Astronomical Twilight 5:45 AM AKDT 10:00 PM AKDT
Moon 7:15 PM AKDT (9/30) 9:15 AM AKDT (9/30)
Length of Visible Light 12h 51m
Length of Day
11h 27m
Full, 100% of the Moon is Illuminated
Sep 30
Full
Oct 7
Last Quarter
Oct 15
New
Oct 21
First Quarter
Oct 29
Full

Hourly Weather History & Observations

Time (AKDT) Temp. Windchill Dew Point Humidity Pressure Visibility Wind Dir Wind Speed Gust Speed Precip Events Conditions
12:16 AM 28.4 °F 24.6 °F 24.8 °F 86% 29.87 in 10.0 mi East 3.5 mph - N/A   Clear
12:36 AM 26.6 °F - 24.8 °F 93% 29.88 in 10.0 mi Calm Calm - N/A   Clear
12:56 AM 28.4 °F - 24.8 °F 86% 29.88 in - Calm Calm - N/A   Unknown
1:16 AM 26.6 °F - 24.8 °F 93% 29.89 in - Calm Calm - N/A   Unknown
1:36 AM 26.6 °F - 24.8 °F 93% 29.89 in - Calm Calm - N/A   Unknown
1:56 AM 26.6 °F - 23.0 °F 86% 29.90 in - Calm Calm - N/A   Unknown
2:16 AM 24.8 °F - 21.2 °F 86% 29.90 in - Calm Calm - N/A   Unknown
2:36 AM 24.8 °F 20.5 °F 21.2 °F 86% 29.91 in - ESE 3.5 mph - N/A   Unknown
2:56 AM 24.8 °F 20.5 °F 23.0 °F 93% 29.91 in 10.0 mi East 3.5 mph - N/A   Clear
3:16 AM 26.6 °F - 23.0 °F 86% 29.92 in 10.0 mi Calm Calm - N/A   Clear
3:36 AM 26.6 °F - 24.8 °F 93% 29.92 in - Calm Calm - N/A   Unknown
3:56 AM 24.8 °F - 21.2 °F 86% 29.93 in - Calm Calm - N/A   Unknown
4:16 AM 24.8 °F - 21.2 °F 86% 29.93 in 10.0 mi Calm Calm - N/A   Clear
4:36 AM 24.8 °F - 21.2 °F 86% 29.93 in - Calm Calm - N/A   Unknown
4:56 AM 24.8 °F - 21.2 °F 86% 29.94 in - Calm Calm - N/A   Unknown
5:16 AM 23.0 °F - 21.2 °F 93% 29.94 in - Calm Calm - N/A   Unknown
5:36 AM 24.8 °F - 21.2 °F 86% 29.95 in 10.0 mi Calm Calm - N/A   Clear
5:56 AM 21.2 °F - 19.4 °F 93% 29.95 in 5.0 mi Calm Calm - N/A   Partly Cloudy
6:16 AM 23.0 °F 18.4 °F 21.2 °F 93% 29.95 in 8.0 mi East 3.5 mph - N/A   Clear
6:36 AM 23.0 °F 18.4 °F 19.4 °F 86% 29.96 in 10.0 mi East 3.5 mph - N/A   Clear
6:56 AM 24.8 °F 20.5 °F 21.2 °F 86% 29.96 in 10.0 mi East 3.5 mph - N/A   Clear
7:16 AM 24.8 °F 19.1 °F 24.8 °F 100% 29.97 in 10.0 mi East 4.6 mph - N/A   Clear
7:36 AM 26.6 °F 21.2 °F 24.8 °F 93% 29.97 in 10.0 mi East 4.6 mph - N/A   Clear
7:56 AM 24.8 °F 20.5 °F 21.2 °F 86% 29.97 in 10.0 mi East 3.5 mph - N/A   Clear
8:16 AM 24.8 °F - 23.0 °F 93% 29.97 in 10.0 mi Calm Calm - N/A   Clear
8:36 AM 24.8 °F - 23.0 °F 93% 29.98 in 10.0 mi Calm Calm - N/A   Clear
8:56 AM 23.0 °F - 21.2 °F 93% 29.99 in - Calm Calm - N/A   Unknown
9:16 AM 24.8 °F - 23.0 °F 93% 29.99 in - Calm Calm - N/A   Unknown
9:36 AM 24.8 °F - 24.8 °F 100% 30.00 in - Calm Calm - N/A   Unknown
9:56 AM 26.6 °F - 26.6 °F 100% 30.00 in - Calm Calm - N/A   Unknown
10:16 AM 28.4 °F - 28.4 °F 100% 30.01 in - Calm Calm - N/A   Unknown
10:36 AM 33.8 °F - 30.2 °F 87% 30.01 in - Calm Calm - N/A   Unknown
10:56 AM 35.6 °F 31.7 °F 32.0 °F 87% 30.01 in 10.0 mi East 4.6 mph - N/A   Clear
11:16 AM 37.4 °F 32.8 °F 30.2 °F 75% 30.02 in 10.0 mi NE 5.8 mph - N/A   Clear
11:36 AM 37.4 °F 32.8 °F 30.2 °F 75% 30.02 in 10.0 mi NE 5.8 mph - N/A   Clear
11:56 AM 39.2 °F 35.0 °F 30.2 °F 70% 30.02 in 10.0 mi ENE 5.8 mph - N/A   Clear
12:16 PM 39.2 °F 34.2 °F 30.2 °F 70% 30.02 in 10.0 mi East 6.9 mph - N/A   Partly Cloudy
12:36 PM 41.0 °F 36.4 °F 30.2 °F 65% 30.02 in 10.0 mi NNE 6.9 mph - N/A   Scattered Clouds
12:56 PM 41.0 °F 34.3 °F 28.4 °F 61% 30.02 in 10.0 mi NE 11.5 mph - N/A   Partly Cloudy
1:16 PM 42.8 °F 38.0 °F 28.4 °F 57% 30.02 in 10.0 mi NE 8.1 mph - N/A   Clear
1:36 PM 42.8 °F 37.0 °F 28.4 °F 57% 30.02 in 10.0 mi NE 10.4 mph - N/A   Clear
1:56 PM 42.8 °F 37.5 °F 26.6 °F 53% 30.02 in 10.0 mi NNE 9.2 mph - N/A   Clear
2:16 PM 42.8 °F 37.5 °F 26.6 °F 53% 30.02 in 10.0 mi NNE 9.2 mph - N/A   Clear
2:36 PM 42.8 °F 37.0 °F 26.6 °F 53% 30.02 in 10.0 mi NE 10.4 mph - N/A   Clear
2:56 PM 44.6 °F 39.7 °F 26.6 °F 49% 30.01 in 10.0 mi NE 9.2 mph - N/A   Clear
3:16 PM 44.6 °F 39.7 °F 26.6 °F 49% 30.01 in 10.0 mi NE 9.2 mph - N/A   Clear
3:36 PM 44.6 °F 40.2 °F 26.6 °F 49% 30.01 in 10.0 mi NE 8.1 mph - N/A   Clear
3:56 PM 44.6 °F 40.7 °F 24.8 °F 46% 30.01 in 10.0 mi NE 6.9 mph - N/A   Clear
4:16 PM 44.6 °F 40.2 °F 24.8 °F 46% 30.01 in 10.0 mi NE 8.1 mph - N/A   Clear
4:36 PM 44.6 °F 40.2 °F 24.8 °F 46% 30.01 in 10.0 mi ENE 8.1 mph - N/A   Clear
4:56 PM 44.6 °F 40.7 °F 24.8 °F 46% 30.01 in 10.0 mi NE 6.9 mph - N/A   Clear
5:16 PM 44.6 °F 40.7 °F 24.8 °F 46% 30.01 in 10.0 mi NE 6.9 mph - N/A   Clear
5:36 PM 44.6 °F 40.7 °F 24.8 °F 46% 30.01 in 10.0 mi North 6.9 mph - N/A   Clear
5:56 PM 44.6 °F 42.2 °F 24.8 °F 46% 30.01 in 10.0 mi NNE 4.6 mph - N/A   Clear
6:16 PM 44.6 °F 41.4 °F 24.8 °F 46% 30.01 in 10.0 mi NE 5.8 mph - N/A   Clear
6:36 PM 44.6 °F 42.2 °F 24.8 °F 46% 30.01 in 10.0 mi NNE 4.6 mph - N/A   Clear
6:56 PM 44.6 °F 41.4 °F 23.0 °F 43% 30.02 in 10.0 mi NNE 5.8 mph - N/A   Clear
7:16 PM 42.8 °F 41.1 °F 23.0 °F 46% 30.02 in 10.0 mi NE 3.5 mph - N/A   Clear
7:36 PM 39.2 °F - 23.0 °F 52% 30.02 in 10.0 mi Calm Calm - N/A   Clear
7:56 PM 35.6 °F - 23.0 °F 60% 30.03 in 10.0 mi Calm Calm - N/A   Clear
8:16 PM 33.8 °F - 23.0 °F 65% 30.03 in - Calm Calm - N/A   Clear
8:36 PM 32.0 °F - 23.0 °F 69% 30.03 in - Calm Calm - N/A   Clear
8:56 PM 30.2 °F - 21.2 °F 69% 30.04 in - Calm Calm - N/A   Clear
9:16 PM 28.4 °F - 21.2 °F 74% 30.04 in - Calm Calm - N/A   Clear
9:36 PM 28.4 °F - 23.0 °F 80% 30.04 in - Calm Calm - N/A   Clear
9:56 PM 28.4 °F - 23.0 °F 80% 30.05 in 10.0 mi Calm Calm - N/A   Clear
10:16 PM 28.4 °F - 21.2 °F 74% 30.06 in 10.0 mi Calm Calm - N/A   Clear
10:36 PM 28.4 °F - 21.2 °F 74% 30.06 in 10.0 mi Calm Calm - N/A   Clear
10:56 PM 26.6 °F - 23.0 °F 86% 30.06 in 10.0 mi Calm Calm - N/A   Clear
11:16 PM 26.6 °F - 23.0 °F 86% 30.07 in 10.0 mi Calm Calm - N/A   Clear
11:36 PM 26.6 °F - 21.2 °F 80% 30.08 in 10.0 mi Calm Calm - N/A   Clear
11:56 PM 26.6 °F 21.2 °F 21.2 °F 80% 30.08 in 10.0 mi East 4.6 mph - N/A   Clear